Probability
0 0 0 0 0 0 0 0 0 0 0 0 0 0 0 0 0 0 0 0 0 0 0 0 0 0 0 0 0 0 0 0 0 0 0 0 0 0 0 0 0 0 0 0 0 0 0 0 0
0 0 0 0 0 0 0 0 0 0 0 0 0 0 0 0 0 0 0 0 0 0 0 0 0 0 0 0 0 0 0 0 0 0 0 0 0 0 0 0 0 0 0 0 0 0 0 0 0
0 0 0 0 0 0 0 0 0 0 0 0 0 0 0 0 0 0 0 0 0 0 0 0 0 0 0 0 0 0 0 0 0 0 0 0 0 0 0 0 0 0 0 0 0 0 0 0 0
0 0 0 0 0 0 0 0 0 0 0 0 0 0 0 0 0 0 0 0 0 0 0 0 0 0 0 0 0 0 0 0 0 0 0 0 0 0 0 0 0 0 0 0 0 0 0 0 0
0 0 0 0 0 0 0 0 0 0 0 0 0 0 0 0 0 0 0 0 0 0 0 0 0 0 0 0 0 0 0 0 0 0 0 0 0 0 0 0 0 0 0 0 0 0 0 0 0
0 0 0 0 0 0 0 0 0 0 0 0 0 0 0 0 0 0 0 0 0 0 0 0 0 0 0 0 0 0 0 0 0 0 0 0 0 0 0 0 0 0 0 0 0 0 0 0 0
0 0 0 0 0 0 0 0 0 0 0 0 0 0 0 0 0 0 0 0 0 0 0 0 0 0 0 0 0 0 0 0 0 0 0 0 0 0 0 0 0 0 0 0 0 0 0 0 0
0 0 0 0 0 0 0 0 0 0 0 0 0 0 0 0 0 0 0 0 0 0 0 0 0 0 0 0 0 0 0 0 0 0 0 0 0 0 0 0 0 0 0 0 0 0 0 0 0
0 0 0 0 0 0 0 0 0 0 0 0 0 0 0 0 0 0 0 0 0 0 0 0 0 0 0 0 0 0 0 0 0 0 0 0 0 0 0 0 0 0 0 0 0 0 0 0 0
0 0 0 0 0 0 0 0 0 0 0 0 0 0 0 0 0 0 0 0 0 0 0 0 0 0 0 0 0 0 0 0 0 0 0 0 0 0 0 0 0 0 0 0 0 0 0 0 0
0 0 0 0 0 0 0 0 0 0 0 0 0 0 0 0 0 0 0 0 0 0 0 0 0 0 0 0 0 0 0 0 0 0 0 0 0 0 0 0 0 0 0 0 0 0 0 0 0
0 0 0 0 0 0 0 0 0 0 0 0 0 0 0 0 0 0 0 0 0 0 0 0 0 0 0 0 0 0 0 0 0 0 0 0 0 0 0 0 0 0 0 0 0 0 0 0 0
0 0 0 0 0 0 0 0 0 0 0 0 0 0 0 0 0 0 0 0 0 0 0 0 0 0 0 0 0 0 0 0 0 0 0 0 0 0 0 0 0 0 0 0 0 0 0 0 0
0 0 0 0 0 0 0 0 0 0 0 0 0 0 0 0 0 0 0 0 0 0 0 0 0 0 0 0 0 0 0 0 0 0 0 0 0 0 0 0 0 0 0 0 0 0 0 0 0
0 0 0 0 0 0 0 0 0 0 0 0 0 0 0 0 0 0 0 0 0 0 0 0 0 0 0 0 0 0 0 0 0 0 0 0 0 0 0 0 0 0 0 0 0 0 0 0 0
0 0 0 0 0 0 0 0 0 0 0 0 0 0 0 0 0 0 0 0 0 0 0 0 0 0 0 0 0 0 0 0 0 0 0 0 0 0 0 0 0 0 0 0 0 0 0 0 0
0 0 0 0 0 0 0 0 0 0 0 0 0 0 0 0 0 0 0 0 0 0 0 0 0 0 0 0 0 0 0 0 0 0 0 0 0 0 0 0 0 0 0 0 0 0 0 0 0
0 0 0 0 0 0 0 0 0 0 0 0 0 0 0 0 0 0 0 0 0 0 0 0 0 0 0 0 0 0 0 0 0 0 0 0 0 0 0 0 0 0 0 0 0 0 0 0 0
0 0 0 0 0 0 0 0 0 0 0 0 0 0 0 0 0 0 0 0 0 0 0 0 0 0 0 0 0 0 0 0 0 0 0 0 0 0 0 0 0 0 0 0 0 0 0 0 0
0 0 0 0 0 0 0 0 0 0 0 0 0 0 0 0 0 0 0 0 0 0 0 0 0 0 0 0 0 0 0 0 0 0 0 0 0 0 0 0 0 0 0 0 0 0 0 0 0
0 0 0 0 0 0 0 0 0 0 0 0 0 0 0 0 0 0 0 0 0 0 0 0 0 0 0 0 0 0 0 0 0 0 0 0 0 0 0 0 0 0 0 0 0 0 0 0 0
0 0 0 0 0 0 0 0 0 0 0 0 0 0 0 0 0 0 0 0 0 0 0 0 0 0 0 0 0 0 0 0 0 0 0 0 0 0 0 0 0 0 0 0 0 0 0 0 0
0 0 0 0 0 0 0 0 0 0 0 0 0 0 0 0 0 0 0 0 0 0 0 0 0 0 0 0 0 0 0 0 0 0 0 0 0 0 0 0 0 0 0 0 0 0 0 0 0
0 0 0 0 0 0 0 0 0 0 0 0 0 0 0 0 0 0 0 0 0 0 0 0 0 0 0 0 0 0 0 0 0 0 0 0 0 0 0 0 0 0 0 0 0 0 0 0 0
0 0 0 0 0 0 0 0 0 0 0 0 0 0 0 0 0 0 0 0 0 0 0 0 0 0 0 0 0 0 0 0 0 0 0 0 0 0 0 0 0 0 0 0 0 0 0 0 0
0 0 0 0 0 0 0 0 0 0 0 0 0 0 0 0 0 0 0 0 0 0 0 0 0 0 0 0 0 0 0 0 0 0 0 0 0 0 0 0 0 0 0 0 0 0 0 0 0
0 0 0 0 0 0 0 0 0 0 0 0 0 0 0 0 0 0 0 0 0 0 0 0 0 0 0 0 0 0 0 0 0 0 0 0 0 0 0 0 0 0 0 0 0 0 0 0 0
0 0 0 0 0 0 0 0 0 0 0 0 0 0 0 0 0 0 0 0 0 0 0 0 0 0 0 0 0 0 0 0 0 0 0 0 0 0 0 0 0 0 0 0 0 0 0 0 0
0 0 0 0 0 0 0 0 0 0 0 0 0 0 0 0 0 0 0 0 0 0 0 0 0 0 0 0 0 0 0 0 0 0 0 0 0 0 0 0 0 0 0 0 0 0 0 0 0
0 0 0 0 0 0 0 0 0 0 0 0 0 0 0 0 0 0 0 0 0 0 0 0 0 0 0 0 0 0 0 0 0 0 0 0 0 0 0 0 0 0 0 0 0 0 0 0 0
Wind_Speed
8 5 3 5 8 8 4 1 3 1 4 3 5 10 10 6 4 5 3 0 8 8 6 8 10 11 12 12 13 12 12 13 14 14 15 16 17 17 17 17 16 16 16 16 16 16 16 16 16
4 3 6 7 7 5 1 1 4 3 6 6 6 7 7 5 3 3 1 1 7 8 7 8 11 11 12 12 12 12 12 13 13 14 15 16 17 17 16 16 15 15 16 16 16 16 16 16 17
3 3 6 6 5 6 5 4 6 3 4 4 5 5 5 3 2 1 1 3 6 7 6 8 11 11 12 11 12 12 12 12 12 13 15 16 16 16 16 15 15 15 15 16 16 16 16 16 17
4 6 7 7 5 4 9 8 6 4 4 5 6 5 3 3 1 1 2 5 7 6 6 7 11 11 11 11 11 11 11 12 12 13 14 15 15 15 15 15 14 15 15 16 16 16 16 17 18
5 6 7 4 3 2 4 5 7 5 3 3 5 6 3 2 3 4 5 6 7 5 4 6 9 10 10 10 10 10 10 10 11 12 13 14 15 15 14 14 14 14 15 15 15 16 16 17 18
6 6 6 2 2 3 3 5 5 5 4 4 5 6 3 1 2 4 6 6 6 6 4 4 7 8 9 9 9 9 9 9 9 11 13 14 15 14 14 13 13 14 14 15 16 16 16 16 17
6 5 4 4 4 2 3 4 6 6 5 4 7 7 2 2 3 5 6 6 6 5 5 3 2 4 7 9 9 9 9 9 9 10 11 12 13 13 12 12 12 13 13 14 15 15 15 16 17
5 6 3 3 5 4 3 3 4 6 5 3 4 9 7 6 5 6 6 6 6 5 4 3 2 2 2 4 8 9 9 9 9 9 11 11 12 11 11 9 11 12 12 13 13 14 15 16 16
5 7 2 2 6 5 4 4 2 4 7 4 3 3 5 7 7 7 5 4 4 4 4 3 2 1 1 2 5 8 8 9 9 8 11 10 7 7 7 8 10 11 10 11 12 12 13 13 14
6 4 2 2 3 5 4 5 7 5 4 3 2 2 4 6 8 7 6 5 3 2 2 3 3 2 2 1 2 3 3 4 4 4 6 5 5 5 6 9 9 9 8 9 11 12 11 9 6
3 5 2 0 0 3 3 4 5 9 4 7 9 9 6 7 7 7 5 4 3 1 2 4 4 3 2 1 1 1 2 2 2 3 6 5 5 5 5 4 5 5 5 4 6 7 5 5 5
3 1 2 2 1 2 3 4 3 4 4 3 8 10 7 9 8 8 7 5 3 1 1 4 4 2 1 2 3 3 3 3 2 3 5 6 5 5 5 4 3 3 3 4 4 4 5 6 6
2 1 2 3 2 2 2 2 3 3 2 5 9 8 8 8 6 5 6 5 3 1 1 3 3 1 3 4 4 5 4 4 4 4 4 6 6 6 5 4 4 4 3 4 4 4 5 6 6
1 0 1 2 2 2 3 1 2 5 4 6 8 8 8 8 8 6 6 5 4 2 0 2 2 3 6 6 6 5 5 5 5 5 6 7 7 7 7 6 5 5 4 4 5 5 5 5 5
1 1 3 3 4 3 3 4 7 6 8 8 8 7 7 7 7 8 7 6 5 3 1 2 4 6 8 9 8 6 5 5 6 5 7 7 7 8 8 7 6 5 4 5 5 6 5 6 6
3 2 3 5 4 3 6 9 7 7 11 10 8 8 8 7 8 7 7 6 6 5 3 3 5 7 8 8 8 6 6 6 6 5 6 8 8 9 8 7 6 5 5 5 5 4 5 6 6
1 2 5 6 4 4 6 9 4 6 9 9 9 9 9 8 8 8 8 7 7 6 5 5 6 8 9 9 8 8 7 6 5 5 5 7 8 8 8 7 5 5 5 5 5 5 4 5 6
6 5 5 5 3 5 6 10 5 6 9 10 10 10 11 13 12 9 8 8 7 6 6 7 8 9 10 9 8 7 8 6 5 5 5 7 7 8 9 7 6 6 6 6 5 7 6 5 5
6 6 5 6 4 7 10 12 10 7 8 10 11 13 16 16 8 8 8 8 7 7 7 8 10 10 9 7 6 6 5 4 5 5 6 7 7 7 8 8 6 6 6 5 5 5 7 6 3
4 5 7 6 3 6 7 11 11 7 10 12 15 18 19 13 9 12 11 9 9 9 9 9 10 10 8 5 5 5 6 5 4 4 5 6 7 7 8 8 7 6 6 7 6 5 5 4 4
7 8 9 7 2 2 4 9 9 9 8 9 12 14 14 18 19 17 15 13 11 12 12 11 10 10 8 9 9 9 6 4 4 4 4 5 6 7 7 8 7 7 6 6 6 5 6 5 4
8 8 8 6 3 5 4 8 8 8 9 12 16 14 15 15 17 17 16 16 15 13 10 10 10 9 11 12 13 14 9 7 5 4 4 5 6 7 7 8 8 7 6 7 6 5 4 6 4
8 3 4 3 4 4 3 7 9 5 9 13 16 17 17 16 19 21 20 18 13 11 11 10 10 10 12 11 12 12 9 7 7 6 8 7 6 6 7 7 7 7 6 7 7 6 6 4 4
6 6 6 5 3 6 9 10 11 8 11 13 15 13 13 14 16 16 13 12 11 10 11 11 12 11 12 11 10 11 15 15 14 11 9 7 5 5 6 7 7 7 6 7 7 6 8 6 6
6 7 2 3 3 11 6 9 13 12 12 13 15 12 9 11 14 15 17 17 16 15 14 13 14 13 13 12 11 12 15 18 18 15 12 11 7 5 6 7 6 6 6 6 6 7 6 6 6
9 12 11 9 9 7 4 13 12 10 9 9 10 9 6 10 14 17 19 18 17 16 15 15 15 13 14 13 12 11 12 11 10 10 11 10 7 6 7 7 7 7 7 7 6 6 5 5 5
8 8 7 5 1 5 10 10 10 6 9 11 10 8 8 12 15 16 16 16 16 17 16 16 15 13 14 13 13 12 11 10 11 9 8 7 7 7 8 8 8 7 7 7 6 5 5 5 4
8 9 6 6 6 8 10 9 9 10 14 13 11 12 12 10 11 12 14 15 14 14 11 12 13 13 13 13 13 12 11 10 11 11 11 10 9 9 9 8 8 7 7 6 6 5 5 5 4
9 8 8 7 7 8 9 12 10 13 12 11 13 14 12 12 14 14 12 11 11 10 11 12 13 12 12 13 13 13 12 10 11 11 11 11 9 10 10 10 9 8 7 6 6 5 6 5 4
7 9 10 9 9 8 11 15 7 10 9 9 12 10 8 10 11 10 10 11 12 13 13 14 14 13 13 13 13 13 13 12 12 12 11 11 10 10 10 9 9 8 7 7 7 7 6 6 6
Wind_Direction
328 334 66 56 55 53 68 79 164 102 62 51 89 100 102 86 125 154 248 3 136 137 130 121 115 112 110 110 108 104 101 99 98 99 100 96 92 87 81 75 70 67 64 62 60 58 56 52 47
325 3 53 58 80 81 41 244 126 119 139 130 78 75 79 79 81 110 29 103 135 135 130 123 120 117 116 116 114 110 107 104 103 104 104 101 96 91 85 79 74 70 67 65 64 61 58 55 51
329 49 75 69 92 145 165 213 157 142 126 110 76 59 81 89 91 97 343 151 133 130 125 128 125 123 122 121 118 115 113 112 110 110 109 107 102 98 91 85 78 73 70 68 66 64 61 58 56
61 45 53 67 81 178 170 197 173 127 89 80 104 74 66 16 61 101 72 119 116 116 121 130 128 128 127 126 124 123 121 119 117 115 114 113 110 105 98 91 84 78 74 72 70 68 65 62 60
60 71 61 60 72 107 177 188 155 135 110 81 99 102 94 358 56 71 83 95 107 105 106 125 130 132 134 133 132 131 129 126 124 122 121 121 118 113 107 99 90 83 79 77 75 71 69 66 64
56 64 79 119 145 154 178 170 138 125 117 102 99 111 144 314 90 84 87 85 94 101 92 105 127 138 143 144 144 142 140 137 133 132 132 131 129 124 118 109 98 90 85 81 78 74 72 69 68
94 92 131 163 163 182 198 129 126 138 114 115 128 119 164 228 151 116 95 86 78 78 78 72 93 136 152 158 158 159 157 154 149 145 141 140 138 134 128 118 108 99 91 86 82 77 73 70 68
112 98 93 147 167 201 210 93 117 136 120 70 105 145 187 200 161 114 88 78 72 64 60 53 52 86 141 164 171 171 171 168 162 156 151 148 145 141 136 127 116 106 97 90 85 79 74 69 67
79 76 88 180 188 205 205 125 116 101 98 60 43 159 176 147 134 113 92 73 67 53 37 27 19 4 185 183 183 177 176 177 171 163 159 151 146 143 140 132 121 110 100 93 87 82 76 70 65
76 111 179 198 206 197 186 149 151 113 95 88 55 80 106 126 137 137 137 135 118 78 14 4 348 324 286 226 168 174 168 164 161 161 161 152 146 144 134 129 119 107 95 89 87 82 74 69 58
93 155 191 161 11 156 147 154 153 129 172 190 181 177 151 133 139 145 148 147 143 118 351 336 324 305 274 192 138 119 110 109 117 152 159 142 135 131 120 115 109 98 84 72 75 69 61 64 63
94 140 142 145 37 89 132 151 147 161 195 188 166 155 147 148 154 158 156 149 142 120 344 328 317 291 222 121 101 93 90 83 78 96 134 134 131 124 118 110 100 86 81 80 72 70 65 64 64
92 176 145 151 117 115 107 131 153 170 125 108 123 138 153 157 156 156 148 144 142 126 344 326 325 158 130 108 99 91 86 82 75 76 100 122 126 123 111 100 90 81 79 81 78 73 69 64 62
145 170 224 197 178 176 167 195 161 206 164 135 143 160 169 171 167 160 161 160 159 153 36 352 48 106 111 103 99 94 88 82 76 74 86 103 116 119 112 101 91 82 77 76 77 75 73 65 67
104 24 313 245 204 208 137 264 236 188 160 167 175 177 182 187 182 181 179 171 169 166 152 93 95 103 106 104 100 94 86 82 79 78 81 92 104 111 111 104 95 88 83 81 76 68 65 66 71
57 42 283 273 194 179 155 249 251 162 166 187 193 194 195 197 193 187 179 172 173 165 152 122 114 109 107 106 101 94 86 83 81 83 87 91 98 107 107 102 96 90 82 77 76 68 71 65 74
19 235 244 284 192 170 186 242 260 162 179 196 202 205 205 204 202 195 183 178 175 170 158 137 126 120 113 105 98 91 84 77 75 79 89 94 96 99 103 100 95 90 82 72 79 65 75 78 85
216 218 237 250 213 166 215 250 253 186 200 211 212 212 213 211 207 191 183 180 175 171 162 148 137 132 124 114 105 95 82 72 69 71 84 94 98 101 103 100 93 92 90 79 78 84 71 76 93
178 189 226 251 221 182 222 249 258 206 218 231 225 218 219 219 200 181 181 177 173 174 169 163 153 150 142 134 128 116 104 92 80 71 76 88 95 97 102 105 94 89 89 86 91 95 79 58 53
225 245 262 279 250 198 241 259 262 229 215 222 223 222 220 208 187 189 185 183 182 181 178 173 167 163 162 143 129 122 119 102 84 80 73 77 92 99 105 105 103 95 93 77 67 84 91 61 30
229 223 236 245 298 277 298 288 256 253 229 238 233 228 219 205 196 190 188 188 185 187 184 179 174 168 155 139 126 119 106 98 90 90 79 72 87 92 102 104 103 94 94 93 81 84 102 103 48
237 221 214 221 218 262 217 273 258 246 251 246 244 234 225 209 196 189 188 190 191 188 182 178 172 163 154 150 150 149 148 145 146 138 117 97 90 95 98 101 102 99 97 95 88 80 93 109 99
212 186 182 204 208 256 228 255 266 240 253 253 246 238 228 210 195 192 190 189 185 179 179 175 167 163 161 163 162 153 140 131 131 126 118 107 94 93 98 102 104 102 99 98 95 87 81 84 102
134 76 53 44 79 256 215 225 261 207 218 240 248 240 225 207 195 190 181 172 174 174 174 172 169 169 168 166 165 157 146 143 145 145 137 126 115 104 105 106 105 106 106 104 103 98 93 90 90
136 113 29 306 266 246 211 226 248 223 223 229 248 256 232 200 185 180 177 179 179 178 176 174 173 172 171 168 167 164 158 155 156 155 151 146 142 138 137 124 118 113 112 111 109 103 100 101 103
186 164 176 206 230 262 238 235 250 245 254 257 263 272 240 193 187 188 186 183 181 179 177 176 177 174 173 171 168 164 163 159 157 157 154 154 151 147 143 132 125 123 122 120 113 108 108 109 112
169 211 184 166 244 271 255 263 291 261 269 261 260 262 230 199 192 190 186 184 181 181 181 179 177 174 175 172 166 166 167 163 157 151 146 144 145 145 141 136 132 131 128 127 122 119 123 125 124
160 155 133 175 215 250 260 243 233 217 229 239 245 244 234 202 193 189 187 186 184 182 177 176 177 176 173 171 170 170 170 164 158 154 155 155 154 148 146 143 140 138 135 133 127 130 138 136 140
164 176 181 178 186 198 260 253 212 205 212 222 236 239 225 199 194 192 190 184 179 175 176 179 179 173 174 174 172 167 168 163 159 161 162 161 157 154 156 155 151 148 148 148 146 152 155 154 158
194 185 169 180 216 213 248 258 198 199 214 221 239 243 214 195 190 186 180 176 181 184 185 186 185 182 179 174 171 169 168 164 166 167 166 163 161 161 160 157 155 157 160 163 164 167 171 172 177